[[{"header":{"parameterUnit":"m.s-1","parameterCategory":1,"la1":30.2991,"la2":30.254,"lo1":-89.0895,"lo2":-89.0444,"dy":0.0017,"dx":0.0017,"nx":28,"ny":28,"refTime":"2025-04-16T21:00:00:Z","depth":0,"parameterNumber":2,"parameterNumberName":"U-component_of_WINDS"},"data":[0,0,0,0,0,0,0,0,0,0,0,0,0,0,0,0,0,0,0,0,0,0,0,0,0,0,0,0,0,0,0,0,0,0,0,0,0,0,0,0,0,0,0,0,0,0,0,0,0,0,0,0,0,0,0,0,0,0,-0.6252,-0.6253,0,-0.6332,-0.6333,-0.6334,-0.637,-0.637,-0.637,-0.637,-0.6456,-0.6458,-0.646,0,0,0,0,0,0,0,0,0,0,0,0,0,-0.6135,-0.6137,-0.6252,-0.6253,-0.6254,-0.6332,-0.6333,-0.6334,-0.637,-0.637,-0.637,-0.637,-0.6455,-0.6458,-0.6461,0,0,0,0,0,0,0,0,0,0,0,0,0,-0.6197,-0.6137,-0.6252,-0.6281,-0.6284,-0.6332,-0.6333,-0.6335,-0.637,-0.637,-0.637,-0.637,-0.6454,-0.6458,-0.6461,-0.6486,0,0,-0.6472,-0.6474,0,0,0,0,0,0,0,0,-0.6194,-0.6202,-0.6276,-0.6279,-0.6283,-0.6341,-0.6323,-0.6386,-0.637,-0.6338,-0.637,-0.637,-0.6418,-0.6424,-0.644,-0.649,-0.6494,-0.6472,-0.6475,-0.6476,-0.6477,0,0,0,0,0,0,0,-0.6189,-0.6199,-0.6284,-0.6277,-0.6281,-0.6292,-0.6301,-0.6335,-0.6378,-0.6341,-0.6343,-0.6352,-0.642,-0.6436,-0.6442,-0.6495,-0.6472,-0.6475,-0.6478,-0.6479,-0.6573,-0.6573,0,0,0,0,0,0,-0.618,-0.6195,-0.6281,-0.6286,-0.6237,-0.6294,-0.6304,-0.6323,-0.6378,-0.6386,-0.6352,-0.6354,-0.643,-0.6438,-0.6445,-0.648,-0.6476,-0.6479,-0.6481,-0.6572,-0.6573,-0.6573,0,0,0,0,0,0,-0.6177,-0.6187,-0.6278,-0.6241,-0.6254,-0.6296,-0.6317,-0.6324,-0.6341,-0.6386,-0.6395,-0.6361,-0.6431,-0.644,-0.6476,-0.6483,-0.6481,-0.6484,-0.6572,-0.6573,-0.6573,-0.6548,0,0,0,0,0,0,-0.6173,-0.6186,-0.6194,-0.6241,-0.6255,-0.6306,-0.6317,-0.6326,-0.6346,-0.6349,-0.6397,-0.6405,-0.6431,-0.6471,-0.648,-0.6488,-0.6487,-0.6572,-0.6572,-0.6573,-0.6548,-0.6547,-0.6547,0,0,0,0,0,-0.6169,-0.6185,-0.6195,-0.6205,-0.6267,-0.6306,-0.6314,-0.6344,-0.6347,-0.6357,-0.6386,-0.6403,-0.6481,-0.6474,-0.6484,-0.6494,-0.6571,-0.6572,-0.6573,-0.6549,-0.6548,-0.6547,0,0,0,0,0,0,-0.6139,-0.6191,-0.6203,-0.6234,-0.6265,-0.6312,-0.6325,-0.6341,-0.6373,-0.6374,-0.6411,-0.6421,-0.6454,-0.6478,-0.6469,-0.6523,-0.6528,-0.6531,-0.6506,-0.6505,-0.6504,-0.6498,-0.649,0,0,0,0,0,-0.6136,-0.6161,-0.6206,-0.6229,-0.6244,-0.6282,-0.63,-0.632,-0.6354,-0.6368,-0.64,-0.6434,-0.6467,-0.6487,-0.6519,-0.6552,-0.6564,-0.6564,-0.6563,-0.6562,-0.6565,-0.6585,-0.6586,-0.6576,-0.6576,-0.6576,0,0,-0.613,-0.6161,-0.6176,-0.6224,-0.6251,-0.6278,-0.6293,-0.6321,-0.6343,-0.6373,-0.6408,-0.6433,-0.6474,-0.6508,-0.6525,-0.6529,-0.657,-0.6563,-0.6562,-0.6565,-0.6586,-0.6587,-0.6588,-0.6576,-0.6576,-0.6576,0,0,-0.6132,-0.6158,-0.6181,-0.6207,-0.6247,-0.6272,-0.6278,-0.6322,-0.634,-0.6376,-0.64,-0.6427,-0.6481,-0.6509,-0.6531,-0.6546,-0.6563,-0.6556,-0.6552,-0.6572,-0.6573,-0.6574,-0.658,-0.6582,-0.6558,-0.6558,-0.6558,0,-0.612,-0.6161,-0.6191,-0.6218,-0.6239,-0.6267,-0.6292,-0.6316,-0.6365,-0.638,-0.6383,-0.6453,-0.6483,-0.6525,-0.6529,-0.6545,-0.6554,-0.6551,-0.657,-0.6571,-0.6572,-0.6579,-0.6581,-0.6557,-0.6557,-0.6557,-0.6557,0,-0.6145,-0.6173,-0.6187,-0.6232,-0.6255,-0.628,-0.6316,-0.6336,-0.6355,-0.638,-0.6418,-0.6454,-0.6494,-0.6506,-0.6524,-0.6551,-0.6553,-0.6562,-0.6569,-0.6572,-0.6579,-0.6582,-0.6555,-0.6556,-0.6556,-0.6556,0,0,-0.613,-0.6192,-0.6197,-0.6218,-0.6265,-0.6288,-0.6316,-0.6355,-0.6372,-0.6405,-0.6431,-0.6477,-0.6486,-0.6511,-0.6533,-0.655,-0.6562,-0.6558,-0.656,-0.6558,-0.6596,-0.6588,-0.659,-0.6573,-0.6574,-0.6574,-0.6592,0,-0.614,-0.6189,-0.6217,-0.6256,-0.6283,-0.6311,-0.6336,-0.6368,-0.6393,-0.6421,-0.645,-0.6482,-0.6492,-0.6507,-0.6525,-0.6556,-0.657,-0.6555,-0.6599,-0.66,-0.6588,-0.6594,-0.6586,-0.6601,-0.6595,-0.6596,-0.6596,0,-0.6158,-0.6189,-0.623,-0.6275,-0.6287,-0.6308,-0.6347,-0.6373,-0.6412,-0.6429,-0.6456,-0.6479,-0.6511,-0.6515,-0.6561,-0.6551,-0.6571,-0.6589,-0.659,-0.6596,-0.6598,-0.6601,-0.6607,-0.6609,-0.6601,-0.66,-0.66,0,-0.6144,-0.6197,-0.6229,-0.6246,-0.6299,-0.6313,-0.6336,-0.6374,-0.6396,-0.6431,-0.6446,-0.6484,-0.6505,-0.6535,-0.6568,-0.6567,-0.6611,-0.6617,-0.6628,-0.6627,-0.6636,-0.6635,-0.6646,-0.6648,-0.6648,-0.6648,-0.6648,0,-0.6152,-0.6176,-0.6223,-0.6243,-0.6271,-0.6305,-0.6333,-0.6358,-0.6392,-0.6418,-0.6445,-0.647,-0.6511,-0.6541,-0.6568,-0.6603,-0.6612,-0.6628,-0.6635,-0.6626,-0.6624,-0.664,-0.664,-0.6648,-0.6648,-0.6648,-0.6648,0,-0.6142,-0.6174,-0.621,-0.6257,-0.627,-0.6289,-0.633,-0.6351,-0.6378,-0.6411,-0.6421,-0.6463,-0.65,-0.6536,-0.6586,-0.6604,-0.6639,-0.6648,-0.6626,-0.663,-0.6639,-0.6638,-0.6661,-0.6666,-0.6663,-0.6663,-0.6663,0,-0.6145,-0.6164,-0.6213,-0.6232,-0.6254,-0.6284,-0.6307,-0.6341,-0.6364,-0.6409,-0.6426,-0.6464,-0.6497,-0.6556,-0.6592,-0.6631,-0.6642,-0.6647,-0.6648,-0.6639,-0.6643,-0.6641,-0.6644,-0.6646,-0.6646,-0.6646,-0.6646,0,-0.6148,-0.6163,-0.6193,-0.623,-0.6256,-0.6287,-0.6319,-0.6333,-0.6374,-0.6399,-0.6436,-0.6462,-0.6513,-0.6552,-0.6595,-0.6621,-0.6641,-0.6645,-0.665,-0.6641,-0.6628,-0.6637,-0.6625,-0.6645,-0.6645,-0.6645,-0.6645,-0.6645,-0.6145,-0.6164,-0.6201,-0.6235,-0.6262,-0.6292,-0.6314,-0.6344,-0.6375,-0.6418,-0.6438,-0.6476,-0.6516,-0.6576,-0.6602,-0.6634,-0.6639,-0.6645,-0.6647,-0.6648,-0.6647,-0.6623,-0.6642,-0.6642,-0.6642,-0.6642,-0.6642,0,-0.615,-0.6176,-0.6206,-0.6249,-0.6277,-0.6291,-0.6328,-0.635,-0.6383,-0.6418,-0.645,-0.6494,-0.6533,-0.6572,-0.6614,-0.6632,-0.6642,-0.6642,-0.6641,-0.6647,-0.664,-0.6632,-0.6633,-0.6633,-0.6633,-0.6633,-0.6633,-0.6633,-0.6156,-0.6188,-0.6208,-0.6256,-0.6282,-0.6319,-0.6339,-0.6367,-0.6395,-0.6443,-0.6474,-0.65,-0.6537,-0.6581,-0.6618,-0.6629,-0.6643,-0.664,-0.6654,-0.6647,-0.6647,-0.6648,-0.664,-0.6643,-0.6643,-0.6659,-0.6659,-0.6659]},{"header":{"parameterUnit":"m.s-1","parameterCategory":1,"la1":30.2991,"la2":30.254,"lo1":-89.0895,"lo2":-89.0444,"dy":0.0017,"dx":0.0017,"nx":28,"ny":28,"refTime":"2025-04-16T21:00:00:Z","depth":0,"parameterNumber":3,"parameterNumberName":"V-component_of_WINDS"},"data":[0,0,0,0,0,0,0,0,0,0,0,0,0,0,0,0,0,0,0,0,0,0,0,0,0,0,0,0,0,0,0,0,0,0,0,0,0,0,0,0,0,0,0,0,0,0,0,0,0,0,0,0,0,0,0,0,0,0,6.1514,6.1516,0,6.1637,6.1638,6.164,6.1589,6.1587,6.1584,6.1581,6.1699,6.1705,6.1711,0,0,0,0,0,0,0,0,0,0,0,0,0,6.1227,6.1233,6.1514,6.1516,6.1517,6.1637,6.1639,6.164,6.159,6.1586,6.1583,6.158,6.1697,6.1704,6.1711,0,0,0,0,0,0,0,0,0,0,0,0,0,6.1351,6.1235,6.1514,6.1507,6.1507,6.1637,6.1639,6.1641,6.1591,6.1586,6.1582,6.1578,6.1695,6.1704,6.1712,6.1853,0,0,6.1739,6.1743,0,0,0,0,0,0,0,0,6.1344,6.1361,6.1506,6.1508,6.1508,6.1594,6.1581,6.1712,6.1592,6.1559,6.1581,6.1576,6.1667,6.1678,6.171,6.1859,6.1864,6.174,6.1745,6.1749,6.1752,0,0,0,0,0,0,0,6.1335,6.1356,6.1563,6.1508,6.151,6.1494,6.1507,6.1605,6.1636,6.1561,6.1558,6.1574,6.1667,6.1702,6.1713,6.1866,6.174,6.1748,6.1753,6.1756,6.2132,6.2137,0,0,0,0,0,0,6.1328,6.1349,6.1559,6.1566,6.1414,6.1503,6.1518,6.1571,6.1635,6.164,6.1577,6.1571,6.1689,6.1703,6.1717,6.1884,6.1749,6.1757,6.1762,6.2128,6.2133,6.2139,0,0,0,0,0,0,6.1322,6.1347,6.1554,6.1457,6.1482,6.1513,6.1573,6.1575,6.161,6.1647,6.1651,6.1608,6.1686,6.1704,6.182,6.1887,6.1761,6.1769,6.2122,6.2129,6.2136,6.2221,0,0,0,0,0,0,6.1314,6.1345,6.1402,6.1459,6.1488,6.1658,6.1577,6.1581,6.1627,6.1619,6.1677,6.1682,6.1684,6.1807,6.1828,6.1897,6.1776,6.2116,6.2125,6.2134,6.2212,6.223,6.2245,0,0,0,0,0,6.1304,6.142,6.1405,6.143,6.1559,6.1662,6.1678,6.168,6.1632,6.1687,6.171,6.168,6.1877,6.1819,6.1843,6.1915,6.2112,6.2123,6.2133,6.2205,6.2226,6.2245,0,0,0,0,0,0,6.1368,6.1427,6.1411,6.155,6.1601,6.1653,6.1723,6.1704,6.1768,6.1758,6.1756,6.1769,6.1888,6.1913,6.1848,6.2053,6.1987,6.2002,6.2033,6.2054,6.207,6.2061,6.1783,0,0,0,0,0,6.1398,6.1479,6.1526,6.1643,6.167,6.1692,6.1737,6.1734,6.1787,6.1808,6.1839,6.1889,6.1961,6.2009,6.2078,6.2216,6.2225,6.2277,6.2293,6.2307,6.232,6.2391,6.2414,6.2173,6.2173,6.2173,0,0,6.1461,6.1504,6.1555,6.1657,6.1697,6.1777,6.1711,6.18,6.1859,6.182,6.1931,6.1956,6.201,6.2137,6.2194,6.2161,6.2389,6.232,6.2331,6.2337,6.2405,6.2427,6.2447,6.2181,6.2179,6.2178,0,0,6.1617,6.1659,6.176,6.1802,6.1863,6.1877,6.1901,6.1956,6.1971,6.2083,6.2055,6.2123,6.2249,6.2289,6.2326,6.2495,6.2468,6.2517,6.2603,6.2672,6.2691,6.2708,6.2766,6.2787,6.253,6.253,6.2531,0,6.1687,6.1812,6.1814,6.1906,6.195,6.192,6.202,6.2059,6.2139,6.2169,6.2132,6.2288,6.2323,6.2457,6.2498,6.253,6.2554,6.251,6.2689,6.2706,6.2721,6.2776,6.2798,6.2536,6.2535,6.2535,6.2534,0,6.1893,6.1979,6.2053,6.2133,6.2185,6.228,6.2294,6.2347,6.2339,6.2355,6.2467,6.2508,6.2584,6.2615,6.2608,6.2747,6.2725,6.2689,6.2621,6.275,6.2801,6.2822,6.2543,6.2542,6.254,6.2539,0,0,6.2093,6.2173,6.22,6.2234,6.2299,6.2364,6.2456,6.2532,6.2576,6.2631,6.2706,6.2813,6.2779,6.282,6.2817,6.2879,6.3006,6.2834,6.2835,6.2863,6.3159,6.3184,6.3209,6.299,6.2994,6.2997,6.3153,0,6.2253,6.2418,6.2422,6.2571,6.2649,6.2621,6.27,6.2747,6.2764,6.283,6.2848,6.2922,6.2874,6.2898,6.2958,6.2978,6.3065,6.2967,6.3056,6.3059,6.3042,6.3236,6.3264,6.341,6.3174,6.3177,6.3179,0,6.2462,6.2525,6.2683,6.2735,6.2767,6.2839,6.2907,6.2972,6.3022,6.303,6.3076,6.3063,6.3153,6.3084,6.3207,6.314,6.3176,6.3191,6.3197,6.3204,6.3126,6.3246,6.3457,6.3478,6.3212,6.3209,6.3207,0,6.2589,6.2714,6.2824,6.2855,6.2918,6.2969,6.2997,6.3044,6.3088,6.3147,6.3175,6.3243,6.328,6.3331,6.3335,6.3285,6.3458,6.3389,6.3464,6.3464,6.3501,6.3498,6.3718,6.3527,6.3527,6.3527,6.3526,0,6.2766,6.2863,6.2882,6.295,6.3056,6.3058,6.3162,6.3186,6.3227,6.3296,6.3276,6.334,6.3343,6.3408,6.3411,6.351,6.3527,6.3534,6.3533,6.3535,6.3534,6.3558,6.3547,6.3532,6.3531,6.353,6.3529,0,6.2926,6.2944,6.3061,6.3111,6.3126,6.3202,6.3243,6.3306,6.3321,6.3408,6.3428,6.3451,6.3526,6.3536,6.3623,6.3625,6.3744,6.3734,6.3728,6.3726,6.3799,6.3791,6.404,6.4072,6.3862,6.3864,6.3866,0,6.3038,6.3112,6.317,6.3216,6.3247,6.3321,6.3366,6.337,6.3418,6.348,6.3534,6.3608,6.3667,6.3787,6.381,6.3876,6.3865,6.3948,6.3875,6.3873,6.3864,6.3859,6.3865,6.3962,6.3964,6.3966,6.3967,0,6.3232,6.3236,6.3304,6.3375,6.343,6.3485,6.3536,6.3574,6.3583,6.3637,6.3715,6.3761,6.385,6.3922,6.3987,6.4012,6.3991,6.399,6.401,6.4012,6.4005,6.4007,6.3764,6.3984,6.3983,6.3981,6.398,6.398,6.337,6.3433,6.3484,6.3559,6.3598,6.3647,6.3707,6.373,6.3796,6.387,6.3867,6.3952,6.3997,6.4082,6.4112,6.4176,6.4149,6.4179,6.4186,6.4193,6.4199,6.3996,6.4188,6.4188,6.4187,6.4187,6.4187,0,6.3561,6.3592,6.3662,6.3735,6.3793,6.377,6.3825,6.3874,6.395,6.3995,6.4054,6.4141,6.421,6.4238,6.4305,6.4351,6.4342,6.4368,6.4363,6.4369,6.4221,6.4196,6.4373,6.4373,6.4373,6.4373,6.4373,6.4373,6.3668,6.3774,6.3783,6.3907,6.3936,6.4021,6.4054,6.4097,6.4133,6.4232,6.429,6.4308,6.4345,6.4415,6.4476,6.4482,6.4506,6.4536,6.4537,6.4399,6.438,6.4362,6.4338,6.4542,6.4542,6.4679,6.4681,6.4682]}]]